Location: Schommer Observatory
(40.5200°N, 74.4500°W)
Time: 08:23:24
(UTC-05:00)

OTV 5 (USA 277) - Visible Passes

Search period start: 21 January 2019 00:00
Search period end: 31 January 2019 00:00
Orbit: 339 x 349 km, 54.5° (Epoch: 15 January)

Date Brightness Start Highest point End Pass type
(mag) Time Alt. Az. Time Alt. Az. Time Alt. Az.
25 Jan ? 06:01:30 10° SSW 06:04:06 30° SE 06:06:43 10° ENE visible
26 Jan ? 06:24:46 10° SW 06:27:40 67° NW 06:30:35 10° NE visible
27 Jan ? 05:16:17 28° SE 05:16:33 29° SE 05:19:08 10° ENE visible
28 Jan ? 05:40:01 70° WNW 05:40:06 71° NW 05:43:00 10° NE visible
29 Jan ? 06:03:27 23° NW 06:03:53 23° NNW 06:06:20 10° NNE visible
30 Jan ? 04:55:15 11° NE 04:55:15 11° NE 04:55:27 10° NE visible
30 Jan ? 06:26:44 10° NW 06:27:54 12° NNW 06:29:03 10° N visible
